User: anonymous   Login
Location: Roc des P�zouls
(43.9667°N, 3.5500°E)
Time: 10:31:09
(UTC+00:00)
Language:

STARLINK-48 - Orbit

View from above orbital plane
View from above orbital plane
View from above satellite
View from above satellite

Ground track
Ground track

The orbit data is extracted from the following two-line orbital elements,

1 44289U 19029BG  20023.25001157  .00316098  00000-0  14098-1 0  9996
2 44289  53.0020 134.2302 0002808 103.4209 201.6531 15.19482813 38293
Epoch (UTC): 23 January 2020 06:00:01
Eccentricity: 0.0002808
inclination: 53.0020°
perigee height: 505 km
apogee height: 509 km
right ascension of ascending node: 134.2302°
argument of perigee: 103.4209°
revolutions per day: 15.19482813
mean anomaly at epoch: 201.6531°
orbit number at epoch: 3829

The dashed part of the orbit path shows where the satellite is in the earth's shadow,  

DLR